Вернуться в каталог

STARLINK-38176

АктивенСвязьSSO
NORAD 100189·PAYLOAD·🇺🇸 United States

Запущен Aug 1, 2026 с Vandenberg Space Force Base

Loading…

Ближайшие Пролёты (ближайшие 24 часа)

TLE

СвежийSource: Space-Track

Эпоха: Sep 14, 2026, 12:48 UTC

1 A0189U 26175L   26257.53337279  .00233339  00000-0  15178-2 0  9997
2 A0189  97.2837  99.6234 0001174  99.5437 260.5961 15.75268365  8239

Отслеживайте STARLINK-38176 в реальном времени с AllMySat

Download on the App Store